LiveATC.Net - Listen to live air traffic control over the Internet!


ICAO: KSMO  IATA: SMO   Airport: Santa Monica Municipal Airport
City: Santa Monica   State/Province: California
Country: United States   Continent: North America
KSMO METAR Weather: KSMO 250251Z 22005KT 10SM FEW006 21/19 A2992 RMK AO2 SLP129 T02110194 53004
KSMO Flight Activity (FlightAware)
KSMO Webcam:  (Airport Webcams) 
KSMO Airport Info   (iFlightPlanner)
KSMO VFR Sectional Chart   (iFlightPlanner) 
KSMO IFR Low Chart   (iFlightPlanner) 

KSMO Tower
Feed Status: DOWN
Last heard on: 2019-08-24 21:05:23 (0 days 6 hours 39 minutes ago)
KSMO Tower Audio Archives
FacilityFrequency
Santa Monica Tower120.100
Feed sponsored by: Proteus Air Services

NOTICE

Unauthorized use prohibited. See LiveATC.net Terms of Service


Airport/ARTCC Code
Frequency Search
(e.g., 124.400, 128.75)
Site-wide search
 


Browse LiveATC Feeds
Top 50 LiveATC Feeds
LiveATC Feed Map
Bad Weather Areas

LiveATC FAQ
Offer LiveATC feed
Contact LiveATC.net
Press Inquiries

LiveATC on iPhone
LiveATC on Android

Windows Phone
Windows 8/10

LiveATC Mobile
(Mobile browser)

ATC Audio Archives
Interesting Recordings

LiveATC Forums


Home Page
About LiveATC.net
Make a Donation
Terms of Use
Privacy Policy

Canadian Air Freqs

AIRMETs/SIGMETs

FAA Airport Status
Nat'l Airspace Status
Arrival Demand Charts


Server Software By:
Icecast.org
Liquidsoap